Date,TemperatureHighF,TemperatureAvgF,TemperatureLowF,DewpointHighF,DewpointAvgF,DewpointLowF,HumidityHigh,HumidityAvg,HumidityLow,PressureMaxIn,PressureMinIn,WindSpeedMaxMPH,WindSpeedAvgMPH,GustSpeedMaxMPH,PrecipitationSumIn
2013-5-1,90.6,72.2,55.3,41.6,29.1,18.2,41,22,9,31.08,18.12,15,1,15,0.00
2013-5-2,94.5,68.3,50.6,44.7,33.4,17.7,66,34,11,31.08,21.42,10,0,15,0.00
2013-5-3,96.0,71.8,52.1,46.9,38.0,27.8,61,32,14,31.10,20.60,12,1,12,0.00
2013-5-4,91.0,68.0,52.8,51.3,47.3,38.4,78,53,18,32.49,22.05,14,1,14,0.00
2013-5-5,66.7,59.4,54.4,52.7,50.0,47.9,80,71,59,32.49,21.39,28,3,28,0.00
2013-5-6,73.8,63.0,53.1,54.6,50.8,48.3,85,66,44,30.01,21.47,14,1,14,0.00
2013-5-7,76.7,63.2,55.3,54.8,51.7,47.5,82,68,38,31.62,16.48,15,1,15,0.00
2013-5-8,68.5,57.2,53.0,54.1,50.0,47.7,86,77,60,31.68,19.85,17,1,17,0.00
2013-5-9,66.8,57.4,51.6,53.2,49.2,46.8,84,75,59,28.29,16.07,14,2,14,0.00
2013-5-10,79.0,60.6,51.7,58.4,51.2,47.6,87,73,46,29.54,18.14,17,1,17,0.00
2013-5-11,88.1,65.1,51.0,61.9,53.2,46.8,88,68,39,31.16,21.42,11,1,11,0.00
2013-5-12,80.5,64.0,50.1,60.9,51.0,43.8,88,65,31,32.47,18.12,18,1,18,0.00
2013-5-13,81.0,64.2,49.0,58.6,51.3,44.3,86,65,45,31.12,16.48,16,1,16,0.00
2013-5-14,78.5,64.1,53.2,55.8,49.6,45.1,82,62,37,32.49,22.00,15,2,15,0.00
2013-5-15,67.8,58.5,50.4,49.7,46.6,43.4,81,66,43,31.12,22.00,22,3,22,0.00
2013-5-16,70.8,60.4,54.5,56.0,50.9,47.0,83,72,52,31.12,20.60,22,3,22,0.00
2013-5-17,67.2,58.4,50.9,49.8,46.4,43.0,83,66,47,32.46,19.50,23,2,23,0.00
2013-5-18,75.2,60.9,49.1,53.9,48.9,44.5,85,66,41,31.08,21.47,21,2,21,0.00
2013-5-19,86.8,66.9,49.5,49.5,45.6,38.8,83,51,21,31.67,21.31,16,1,16,0.00
2013-5-20,90.8,68.6,51.3,53.6,45.1,32.7,79,50,14,31.90,21.31,16,1,16,0.00
2013-5-21,66.8,58.3,51.2,50.6,45.2,37.7,76,62,48,31.12,20.64,33,4,33,0.00
2013-5-22,62.7,55.2,48.3,43.9,36.8,27.8,74,51,28,32.07,19.85,21,3,21,0.00
2013-5-23,74.5,57.6,47.8,47.4,43.3,40.9,80,61,37,31.12,16.48,18,2,18,0.00
2013-5-24,76.6,57.8,46.8,48.6,44.2,41.2,81,63,36,31.12,17.47,25,2,25,0.00
2013-5-25,73.5,57.3,48.5,50.7,46.4,42.8,83,69,42,31.68,21.47,30,3,32,0.00
2013-5-26,71.5,60.7,53.5,52.7,50.7,48.0,86,71,49,32.49,21.47,24,3,24,0.00
2013-5-27,64.4,58.9,53.7,55.6,52.4,47.8,88,79,70,31.12,17.59,15,2,15,0.02
2013-5-28,69.7,61.8,55.9,57.4,52.9,48.4,90,74,55,31.12,21.42,17,2,17,0.01
2013-5-29,70.8,61.6,54.1,55.0,50.9,46.6,82,68,54,32.42,17.32,23,3,23,0.00
2013-5-30,74.0,61.2,49.6,49.3,46.7,44.6,84,61,38,31.12,20.60,19,2,19,0.00
2013-5-31,88.4,67.8,49.0,56.0,48.0,42.8,82,54,21,32.28,23.29,17,1,17,0.00